Location: D�derode
(51.8092°N, 10.1065°E)
Time: 06:54:40
(UTC+00:00)

CZ-4 R/B - Pass Details

Date: 01 December 2020
Orbit: 532 x 597 km, 97.7° (Epoch: 23 January)

Event Time Altitude Azimuth Distance (km) Brightness Sun altitude
Exits shadow 17:41:03 55° 149° (SSE) 686 1.6 -22.0°
Maximum altitude 17:41:53 80° 74° (ENE) 584 1.2 -22.1°
Drops below altitude 10° 17:46:00 10° 348° (NNW) 1,899 4.1 -22.7°
Sets 17:48:11 0° 347° (NNW) 2,814 5.0 -23.1°
